Back to catalog

FENGYUN 1C DEB

AliveSSO
NORAD 29858·DEBRIS·🇨🇳 China

Launched May 10, 1999 from Taiyuan Satellite Launch Center

Loading…

Next Passes (next 24 hours)

TLE

FreshSource: Space-Track

Epoch: Sep 14, 2026, 06:05 UTC

1 29858U 99025FC  26257.25416571  .00000548  00000-0  50505-3 0  9995
2 29858  99.2162 356.0033 0195784  55.0448 332.8065 13.78493493983494

Track FENGYUN 1C DEB in real time with AllMySat

Download on the App Store